Zurück zum Katalog

ONEWEB-0031

AktivKommunikationPO
NORAD 45431·PAYLOAD·🇬🇧 United Kingdom

Gestartet Mar 21, 2020 von Baikonur Cosmodrome

Loading…

Nächste Überflüge (nächste 24 Stunden)

TLE

AktuellSource: CelesTrak SupGP

Epoche: Sep 15, 2026, 03:34 UTC

1 45431C 20020H   26258.14912454  .00003538  00000+0  99961-2 0  2586
2 45431  87.8959   3.1849 0001671  98.3395 298.7419 13.11410490    17

Verfolge ONEWEB-0031 in Echtzeit mit AllMySat

Download on the App Store